This is the latest recevied weather packets stored in our database for station/object GBTWP-2. If no packets are shown the sender has not sent any weather packets the latest 10 day(s).
| Time | Temp. | Humidity | Pressure | Rain* | Wind** | Luminosity | Snow |
|---|---|---|---|---|---|---|---|
| 1787410620 | 16.67° C | 97% | 1014.6 hPa | 0 mm | - | 11 W/m² | - |
| 1787410320 | 16.67° C | 97% | 1014.6 hPa | 0 mm | - | 11 W/m² | - |
| 1787410019 | 16.67° C | 97% | 1014.6 hPa | 0 mm | - | 12 W/m² | - |
| 1787409720 | 16.67° C | 97% | 1014.6 hPa | 0 mm | - | 13 W/m² | - |
| 1787409419 | 16.67° C | 97% | 1014.2 hPa | 0 mm | - | 14 W/m² | - |
| 1787409120 | 16.67° C | 97% | 1014.2 hPa | 0 mm | - | 16 W/m² | - |
| 1787408819 | 16.67° C | 97% | 1014.4 hPa | 0 mm | - | 17 W/m² | - |
| 1787408520 | 16.67° C | 97% | 1014.4 hPa | 0 mm | - | 22 W/m² | - |
| 1787408217 | 16.67° C | 97% | 1014.3 hPa | 0 mm | - | 20 W/m² | - |
| 1787407920 | 16.67° C | 97% | 1014.8 hPa | 0 mm | - | 19 W/m² | - |
| 1787407620 | 16.67° C | 97% | 1014.8 hPa | 0 mm | - | 20 W/m² | - |
| 1787407320 | 16.67° C | 96% | 1014.8 hPa | 0 mm | - | 18 W/m² | - |
| 1787407020 | 16.67° C | 96% | 1014.9 hPa | 0 mm | - | 15 W/m² | - |
| 1787406720 | 16.67° C | 97% | 1015.1 hPa | 0 mm | - | 13 W/m² | - |
| 1787406420 | 16.67° C | 96% | 1014.6 hPa | 0 mm | - | 12 W/m² | - |
| 1787406120 | 16.67° C | 96% | 1014.5 hPa | 0 mm | - | 10 W/m² | - |
| 1787405820 | 16.67° C | 96% | 1014.5 hPa | 0 mm | - | 9 W/m² | - |
| 1787405519 | 16.67° C | 96% | 1014.5 hPa | 0 mm | - | 9 W/m² | - |
| 1787405220 | 17.22° C | 96% | 1014.8 hPa | 0 mm | - | 9 W/m² | - |
| 1787404920 | 16.67° C | 96% | 1015.1 hPa | 0 mm | - | 11 W/m² | - |
| 1787404619 | 17.22° C | 96% | 1015.4 hPa | 0 mm | - | 15 W/m² | - |
| 1787404319 | 16.67° C | 96% | 1015.6 hPa | 0 mm | - | 14 W/m² | - |
| 1787404019 | 16.67° C | 96% | 1015.6 hPa | 0 mm | - | 13 W/m² | - |
| 1787403720 | 16.67° C | 96% | 1015.4 hPa | 1.27 mm | - | 15 W/m² | - |
| 1787403419 | 16.67° C | 96% | 1015.3 hPa | 1.27 mm | - | 13 W/m² | - |
* Rain latest hour (hover to see other rain measurements)
** Current wind speed in m/s (hover to see current wind gust speed)